QPF
0.00 0.00 0.00 0.00 0.00 0.00 0.00 0.00 0.00 0.00 0.00 0.00 0.00 0.00 0.00 0.00 0.00 0.00 0.00 0.00 0.00 0.00 0.00 0.00 0.00 0.00 0.00 0.00 0.00 0.00 0.00 0.00 0.00 0.00 0.00 0.00 0.00 0.00 0.00 0.00 0.00 0.00 0.00
0.00 0.00 0.00 0.00 0.00 0.00 0.00 0.00 0.00 0.00 0.00 0.00 0.00 0.00 0.00 0.00 0.00 0.00 0.00 0.00 0.00 0.00 0.00 0.00 0.00 0.00 0.00 0.00 0.00 0.00 0.00 0.00 0.00 0.00 0.00 0.00 0.00 0.00 0.00 0.00 0.00 0.00 0.00
0.00 0.00 0.00 0.00 0.00 0.00 0.00 0.00 0.00 0.00 0.00 0.00 0.00 0.00 0.00 0.00 0.00 0.00 0.00 0.00 0.00 0.00 0.00 0.00 0.00 0.00 0.00 0.00 0.00 0.00 0.00 0.00 0.00 0.00 0.00 0.00 0.00 0.00 0.00 0.00 0.00 0.00 0.00
0.00 0.00 0.00 0.00 0.00 0.00 0.00 0.00 0.00 0.00 0.00 0.00 0.00 0.00 0.00 0.00 0.00 0.00 0.00 0.00 0.00 0.00 0.00 0.00 0.00 0.00 0.00 0.00 0.00 0.00 0.00 0.00 0.00 0.00 0.00 0.00 0.00 0.00 0.00 0.00 0.00 0.00 0.00
0.00 0.00 0.00 0.00 0.00 0.00 0.00 0.00 0.00 0.00 0.00 0.00 0.00 0.00 0.00 0.00 0.00 0.00 0.00 0.00 0.00 0.00 0.00 0.00 0.00 0.00 0.00 0.00 0.00 0.00 0.00 0.00 0.00 0.00 0.00 0.00 0.00 0.00 0.00 0.01 0.01 0.00 0.00
0.00 0.00 0.00 0.00 0.00 0.00 0.00 0.00 0.00 0.00 0.00 0.00 0.00 0.00 0.00 0.00 0.00 0.00 0.00 0.00 0.00 0.00 0.00 0.00 0.00 0.00 0.00 0.00 0.00 0.00 0.00 0.00 0.00 0.00 0.00 0.00 0.00 0.00 0.01 0.02 0.03 0.02 0.01
0.00 0.00 0.00 0.00 0.00 0.00 0.00 0.00 0.00 0.00 0.00 0.00 0.00 0.00 0.00 0.00 0.00 0.00 0.00 0.00 0.00 0.00 0.00 0.00 0.00 0.00 0.00 0.00 0.00 0.00 0.00 0.00 0.00 0.00 0.00 0.00 0.00 0.00 0.00 0.02 0.04 0.04 0.03
0.00 0.00 0.00 0.00 0.00 0.00 0.00 0.00 0.00 0.00 0.00 0.00 0.00 0.00 0.00 0.00 0.00 0.00 0.00 0.00 0.00 0.00 0.00 0.00 0.00 0.00 0.00 0.00 0.00 0.00 0.00 0.00 0.00 0.00 0.00 0.00 0.00 0.00 0.01 0.03 0.05 0.04 0.04
0.00 0.00 0.00 0.00 0.00 0.00 0.00 0.00 0.00 0.00 0.00 0.00 0.00 0.00 0.00 0.00 0.00 0.00 0.00 0.00 0.00 0.00 0.00 0.00 0.00 0.00 0.00 0.00 0.00 0.00 0.00 0.00 0.00 0.00 0.00 0.00 0.00 0.00 0.01 0.04 0.05 0.04 0.04
0.00 0.00 0.00 0.00 0.00 0.00 0.00 0.00 0.00 0.00 0.00 0.00 0.00 0.00 0.00 0.00 0.00 0.00 0.00 0.00 0.00 0.00 0.00 0.00 0.00 0.00 0.00 0.00 0.00 0.00 0.00 0.00 0.00 0.00 0.00 0.00 0.00 0.00 0.01 0.04 0.06 0.06 0.07
0.00 0.00 0.00 0.00 0.00 0.00 0.00 0.00 0.00 0.00 0.00 0.00 0.00 0.00 0.00 0.00 0.00 0.00 0.00 0.00 0.00 0.00 0.00 0.00 0.00 0.00 0.00 0.00 0.00 0.00 0.00 0.00 0.00 0.00 0.00 0.00 0.00 0.00 0.02 0.05 0.07 0.08 0.09
0.00 0.00 0.00 0.00 0.00 0.00 0.00 0.00 0.00 0.00 0.00 0.00 0.00 0.00 0.00 0.00 0.00 0.00 0.00 0.00 0.00 0.00 0.00 0.00 0.00 0.00 0.00 0.00 0.00 0.00 0.00 0.00 0.00 0.00 0.00 0.00 0.00 0.02 0.05 0.07 0.08 0.09 0.10
0.00 0.00 0.00 0.00 0.00 0.00 0.00 0.00 0.00 0.00 0.00 0.00 0.00 0.00 0.00 0.00 0.00 0.00 0.00 0.00 0.00 0.00 0.00 0.00 0.01 0.01 0.01 0.01 0.01 0.00 0.00 0.00 0.00 0.00 0.00 0.00 0.01 0.05 0.10 0.10 0.11 0.11 0.11
0.00 0.00 0.00 0.00 0.00 0.00 0.00 0.00 0.00 0.00 0.00 0.00 0.00 0.00 0.00 0.00 0.00 0.00 0.00 0.00 0.00 0.00 0.00 0.00 0.01 0.01 0.02 0.02 0.01 0.01 0.01 0.00 0.00 0.00 0.00 0.00 0.01 0.04 0.10 0.12 0.11 0.11 0.11
0.00 0.01 0.01 0.02 0.02 0.03 0.03 0.02 0.02 0.01 0.00 0.00 0.00 0.00 0.00 0.00 0.01 0.01 0.01 0.01 0.01 0.01 0.01 0.03 0.05 0.06 0.06 0.05 0.05 0.04 0.03 0.02 0.01 0.01 0.01 0.01 0.01 0.03 0.06 0.08 0.09 0.09 0.09
0.01 0.01 0.03 0.04 0.07 0.10 0.09 0.07 0.06 0.05 0.04 0.02 0.03 0.03 0.03 0.02 0.04 0.05 0.05 0.05 0.05 0.06 0.07 0.10 0.13 0.16 0.15 0.14 0.12 0.11 0.09 0.08 0.06 0.05 0.05 0.04 0.02 0.02 0.04 0.06 0.09 0.09 0.08
0.02 0.03 0.06 0.11 0.19 0.19 0.15 0.12 0.11 0.12 0.11 0.10 0.12 0.14 0.14 0.12 0.13 0.16 0.14 0.12 0.16 0.20 0.23 0.25 0.28 0.29 0.25 0.23 0.19 0.20 0.19 0.15 0.12 0.09 0.08 0.08 0.06 0.03 0.03 0.05 0.08 0.09 0.09
0.04 0.06 0.10 0.20 0.25 0.23 0.22 0.21 0.18 0.18 0.18 0.19 0.21 0.20 0.21 0.23 0.25 0.25 0.20 0.19 0.31 0.37 0.41 0.43 0.40 0.36 0.32 0.28 0.23 0.23 0.23 0.20 0.17 0.13 0.11 0.09 0.07 0.05 0.03 0.04 0.08 0.10 0.11
0.05 0.09 0.18 0.26 0.30 0.28 0.20 0.15 0.18 0.23 0.24 0.22 0.23 0.21 0.24 0.30 0.33 0.33 0.22 0.19 0.40 0.49 0.49 0.52 0.49 0.48 0.42 0.35 0.29 0.23 0.21 0.18 0.16 0.14 0.12 0.10 0.08 0.06 0.04 0.03 0.03 0.07 0.14
0.06 0.09 0.12 0.12 0.14 0.16 0.14 0.14 0.15 0.17 0.18 0.18 0.19 0.17 0.18 0.20 0.29 0.34 0.19 0.22 0.41 0.47 0.45 0.50 0.53 0.53 0.44 0.38 0.36 0.23 0.14 0.11 0.12 0.11 0.09 0.09 0.07 0.04 0.03 0.03 0.02 0.03 0.07
0.04 0.06 0.08 0.06 0.07 0.08 0.10 0.12 0.10 0.06 0.06 0.07 0.07 0.07 0.08 0.10 0.14 0.22 0.18 0.19 0.29 0.31 0.33 0.40 0.42 0.40 0.33 0.38 0.40 0.25 0.14 0.10 0.07 0.04 0.05 0.05 0.04 0.02 0.03 0.02 0.02 0.03 0.03
0.04 0.04 0.03 0.01 0.01 0.02 0.02 0.02 0.02 0.02 0.01 0.01 0.02 0.04 0.04 0.06 0.09 0.13 0.13 0.13 0.17 0.20 0.18 0.21 0.31 0.32 0.22 0.33 0.41 0.36 0.20 0.09 0.05 0.04 0.04 0.04 0.03 0.02 0.02 0.02 0.02 0.03 0.04
0.00 0.00 0.00 0.00 0.00 0.00 0.00 0.00 0.00 0.00 0.00 0.00 0.01 0.01 0.01 0.02 0.03 0.06 0.07 0.07 0.10 0.14 0.12 0.13 0.23 0.28 0.19 0.20 0.31 0.41 0.30 0.11 0.06 0.04 0.04 0.03 0.03 0.03 0.03 0.03 0.04 0.05 0.06
0.00 0.00 0.00 0.00 0.00 0.00 0.00 0.00 0.00 0.00 0.00 0.00 0.00 0.00 0.00 0.01 0.01 0.02 0.02 0.03 0.04 0.06 0.06 0.07 0.13 0.16 0.18 0.14 0.19 0.21 0.24 0.21 0.14 0.05 0.02 0.02 0.03 0.03 0.03 0.04 0.06 0.09 0.10
0.00 0.00 0.00 0.00 0.00 0.00 0.00 0.00 0.00 0.00 0.00 0.00 0.00 0.00 0.00 0.00 0.00 0.00 0.01 0.01 0.02 0.02 0.03 0.04 0.05 0.07 0.07 0.07 0.09 0.10 0.10 0.08 0.08 0.06 0.02 0.01 0.01 0.01 0.02 0.03 0.05 0.09 0.12
0.00 0.00 0.00 0.00 0.00 0.00 0.00 0.00 0.00 0.00 0.00 0.00 0.00 0.00 0.00 0.00 0.00 0.00 0.00 0.00 0.01 0.01 0.02 0.02 0.03 0.02 0.02 0.02 0.03 0.04 0.04 0.03 0.02 0.02 0.03 0.02 0.01 0.02 0.04 0.06 0.08 0.10 0.13
MSLP
1011.37 1011.09 1011.06 1011.27 1011.65 1012.11 1012.53 1012.86 1013.05 1013.12 1013.12 1013.11 1013.15 1013.29 1013.52 1013.81 1014.13 1014.43 1014.66 1014.81 1014.88 1014.90 1014.90 1014.91 1014.94 1015.01 1015.11 1015.22 1015.34 1015.44 1015.53 1015.60 1015.67 1015.74 1015.81 1015.89 1015.99 1016.08 1016.17 1016.27 1016.36 1016.46 1016.57
1011.07 1010.92 1011.01 1011.32 1011.78 1012.28 1012.73 1013.06 1013.25 1013.32 1013.31 1013.30 1013.36 1013.50 1013.74 1014.05 1014.37 1014.66 1014.88 1015.02 1015.08 1015.10 1015.10 1015.11 1015.15 1015.23 1015.33 1015.44 1015.54 1015.62 1015.69 1015.74 1015.80 1015.86 1015.93 1016.01 1016.10 1016.20 1016.28 1016.36 1016.43 1016.51 1016.60
1010.79 1010.76 1010.96 1011.36 1011.88 1012.43 1012.90 1013.24 1013.44 1013.51 1013.51 1013.52 1013.58 1013.74 1013.98 1014.28 1014.58 1014.85 1015.03 1015.14 1015.18 1015.18 1015.19 1015.21 1015.28 1015.37 1015.49 1015.60 1015.70 1015.77 1015.82 1015.86 1015.90 1015.96 1016.04 1016.12 1016.22 1016.30 1016.37 1016.43 1016.48 1016.54 1016.62
1010.56 1010.65 1010.94 1011.41 1011.97 1012.54 1013.03 1013.38 1013.58 1013.67 1013.69 1013.72 1013.80 1013.97 1014.20 1014.48 1014.74 1014.96 1015.10 1015.17 1015.18 1015.18 1015.19 1015.24 1015.33 1015.45 1015.59 1015.71 1015.81 1015.88 1015.92 1015.96 1016.00 1016.06 1016.14 1016.23 1016.32 1016.40 1016.45 1016.49 1016.52 1016.56 1016.63
1010.43 1010.59 1010.95 1011.46 1012.05 1012.63 1013.11 1013.46 1013.67 1013.77 1013.81 1013.86 1013.97 1014.14 1014.37 1014.62 1014.84 1015.01 1015.10 1015.13 1015.12 1015.12 1015.14 1015.22 1015.34 1015.49 1015.65 1015.79 1015.89 1015.96 1016.00 1016.03 1016.08 1016.15 1016.23 1016.33 1016.42 1016.49 1016.52 1016.54 1016.54 1016.57 1016.63
1010.41 1010.62 1011.00 1011.52 1012.11 1012.67 1013.13 1013.47 1013.67 1013.78 1013.85 1013.93 1014.06 1014.25 1014.47 1014.70 1014.89 1015.01 1015.06 1015.06 1015.04 1015.03 1015.07 1015.17 1015.32 1015.51 1015.69 1015.83 1015.94 1016.00 1016.04 1016.07 1016.12 1016.20 1016.29 1016.39 1016.48 1016.53 1016.55 1016.54 1016.53 1016.54 1016.59
1010.49 1010.72 1011.10 1011.60 1012.15 1012.67 1013.10 1013.40 1013.59 1013.70 1013.79 1013.89 1014.05 1014.26 1014.49 1014.71 1014.88 1014.97 1015.00 1014.98 1014.95 1014.95 1015.00 1015.12 1015.30 1015.50 1015.68 1015.83 1015.93 1015.99 1016.02 1016.04 1016.09 1016.17 1016.27 1016.37 1016.46 1016.50 1016.51 1016.48 1016.44 1016.43 1016.48
1010.67 1010.89 1011.25 1011.71 1012.20 1012.65 1013.01 1013.27 1013.43 1013.53 1013.63 1013.76 1013.95 1014.18 1014.43 1014.66 1014.82 1014.91 1014.93 1014.90 1014.87 1014.88 1014.94 1015.07 1015.25 1015.45 1015.63 1015.77 1015.85 1015.88 1015.90 1015.91 1015.95 1016.03 1016.13 1016.23 1016.31 1016.35 1016.35 1016.30 1016.25 1016.23 1016.26
1010.89 1011.10 1011.42 1011.83 1012.25 1012.62 1012.91 1013.10 1013.22 1013.31 1013.41 1013.56 1013.78 1014.04 1014.31 1014.56 1014.74 1014.83 1014.85 1014.83 1014.80 1014.80 1014.87 1014.99 1015.16 1015.34 1015.50 1015.61 1015.66 1015.67 1015.66 1015.66 1015.69 1015.75 1015.85 1015.95 1016.03 1016.06 1016.05 1016.00 1015.94 1015.91 1015.94
1011.12 1011.31 1011.60 1011.95 1012.30 1012.59 1012.80 1012.93 1013.00 1013.06 1013.16 1013.33 1013.57 1013.86 1014.16 1014.42 1014.62 1014.73 1014.75 1014.73 1014.70 1014.70 1014.76 1014.86 1015.01 1015.16 1015.28 1015.36 1015.38 1015.36 1015.32 1015.30 1015.31 1015.36 1015.44 1015.53 1015.60 1015.63 1015.62 1015.57 1015.51 1015.47 1015.50
1011.30 1011.50 1011.77 1012.07 1012.35 1012.57 1012.71 1012.77 1012.80 1012.83 1012.93 1013.10 1013.35 1013.66 1013.98 1014.26 1014.47 1014.59 1014.62 1014.60 1014.56 1014.55 1014.59 1014.67 1014.78 1014.90 1014.98 1015.03 1015.02 1014.97 1014.90 1014.85 1014.84 1014.87 1014.93 1015.01 1015.07 1015.09 1015.08 1015.03 1014.98 1014.95 1014.99
1011.41 1011.63 1011.89 1012.17 1012.40 1012.56 1012.63 1012.65 1012.64 1012.65 1012.73 1012.90 1013.15 1013.46 1013.79 1014.07 1014.28 1014.40 1014.44 1014.41 1014.37 1014.34 1014.35 1014.40 1014.48 1014.56 1014.62 1014.64 1014.61 1014.54 1014.45 1014.38 1014.34 1014.34 1014.38 1014.43 1014.47 1014.49 1014.47 1014.43 1014.39 1014.38 1014.42
1011.42 1011.67 1011.94 1012.20 1012.41 1012.53 1012.57 1012.56 1012.52 1012.52 1012.58 1012.74 1012.98 1013.27 1013.58 1013.85 1014.05 1014.16 1014.18 1014.15 1014.09 1014.05 1014.03 1014.06 1014.12 1014.18 1014.23 1014.23 1014.19 1014.12 1014.02 1013.93 1013.86 1013.83 1013.82 1013.84 1013.85 1013.85 1013.83 1013.80 1013.77 1013.78 1013.83
1011.34 1011.62 1011.91 1012.17 1012.36 1012.47 1012.50 1012.48 1012.44 1012.42 1012.47 1012.61 1012.82 1013.08 1013.35 1013.59 1013.76 1013.85 1013.85 1013.81 1013.74 1013.68 1013.66 1013.67 1013.72 1013.77 1013.82 1013.83 1013.80 1013.72 1013.63 1013.52 1013.43 1013.36 1013.31 1013.28 1013.25 1013.22 1013.19 1013.16 1013.14 1013.16 1013.22
1011.19 1011.49 1011.79 1012.05 1012.24 1012.36 1012.40 1012.39 1012.37 1012.35 1012.39 1012.50 1012.67 1012.88 1013.09 1013.27 1013.40 1013.46 1013.45 1013.39 1013.31 1013.25 1013.23 1013.24 1013.28 1013.35 1013.40 1013.43 1013.42 1013.37 1013.28 1013.17 1013.05 1012.94 1012.84 1012.75 1012.68 1012.61 1012.56 1012.52 1012.50 1012.52 1012.60
1011.02 1011.31 1011.60 1011.86 1012.06 1012.20 1012.27 1012.29 1012.29 1012.29 1012.32 1012.39 1012.50 1012.64 1012.78 1012.90 1012.97 1012.99 1012.95 1012.89 1012.81 1012.76 1012.74 1012.76 1012.81 1012.89 1012.97 1013.03 1013.04 1013.02 1012.94 1012.83 1012.70 1012.55 1012.40 1012.26 1012.13 1012.01 1011.93 1011.86 1011.84 1011.86 1011.93
1010.86 1011.11 1011.37 1011.62 1011.83 1011.99 1012.10 1012.17 1012.20 1012.21 1012.23 1012.26 1012.31 1012.36 1012.42 1012.46 1012.47 1012.45 1012.40 1012.33 1012.26 1012.21 1012.20 1012.23 1012.31 1012.40 1012.50 1012.58 1012.63 1012.63 1012.58 1012.47 1012.33 1012.15 1011.96 1011.76 1011.58 1011.42 1011.28 1011.19 1011.14 1011.15 1011.21
1010.74 1010.93 1011.14 1011.36 1011.57 1011.76 1011.92 1012.03 1012.10 1012.13 1012.13 1012.12 1012.09 1012.06 1012.03 1011.99 1011.93 1011.87 1011.79 1011.72 1011.66 1011.62 1011.63 1011.67 1011.75 1011.85 1011.97 1012.07 1012.15 1012.18 1012.15 1012.06 1011.91 1011.72 1011.49 1011.25 1011.02 1010.81 1010.63 1010.49 1010.42 1010.40 1010.44
1010.68 1010.79 1010.94 1011.12 1011.33 1011.54 1011.74 1011.89 1012.00 1012.04 1012.03 1011.97 1011.87 1011.75 1011.63 1011.51 1011.39 1011.28 1011.19 1011.11 1011.05 1011.02 1011.02 1011.07 1011.14 1011.25 1011.37 1011.49 1011.58 1011.63 1011.63 1011.56 1011.42 1011.22 1010.98 1010.72 1010.44 1010.19 1009.97 1009.79 1009.68 1009.62 1009.63
1010.67 1010.70 1010.78 1010.92 1011.12 1011.34 1011.57 1011.77 1011.90 1011.96 1011.93 1011.83 1011.66 1011.47 1011.26 1011.07 1010.89 1010.74 1010.62 1010.53 1010.46 1010.43 1010.42 1010.45 1010.51 1010.60 1010.71 1010.83 1010.93 1011.00 1011.03 1010.98 1010.87 1010.69 1010.45 1010.17 1009.88 1009.59 1009.33 1009.12 1008.96 1008.86 1008.82
1010.68 1010.63 1010.65 1010.76 1010.94 1011.18 1011.43 1011.66 1011.82 1011.89 1011.85 1011.71 1011.50 1011.24 1010.97 1010.71 1010.48 1010.28 1010.14 1010.02 1009.94 1009.88 1009.85 1009.85 1009.87 1009.93 1010.02 1010.13 1010.24 1010.33 1010.38 1010.37 1010.29 1010.13 1009.92 1009.65 1009.34 1009.04 1008.75 1008.51 1008.31 1008.17 1008.08
1010.70 1010.59 1010.56 1010.63 1010.79 1011.03 1011.30 1011.55 1011.74 1011.82 1011.79 1011.64 1011.40 1011.10 1010.77 1010.46 1010.19 1009.95 1009.77 1009.62 1009.50 1009.41 1009.33 1009.28 1009.26 1009.28 1009.34 1009.43 1009.54 1009.65 1009.73 1009.76 1009.72 1009.61 1009.42 1009.17 1008.89 1008.58 1008.28 1008.01 1007.77 1007.59 1007.47
1010.69 1010.54 1010.47 1010.51 1010.66 1010.89 1011.17 1011.45 1011.65 1011.76 1011.75 1011.60 1011.35 1011.04 1010.69 1010.35 1010.04 1009.76 1009.53 1009.33 1009.16 1009.01 1008.88 1008.77 1008.70 1008.67 1008.70 1008.78 1008.89 1009.01 1009.13 1009.20 1009.21 1009.14 1009.00 1008.79 1008.53 1008.23 1007.93 1007.65 1007.39 1007.18 1007.02
1010.66 1010.49 1010.39 1010.40 1010.53 1010.75 1011.03 1011.31 1011.54 1011.68 1011.70 1011.58 1011.36 1011.05 1010.70 1010.34 1010.00 1009.68 1009.40 1009.14 1008.90 1008.68 1008.47 1008.30 1008.17 1008.10 1008.11 1008.18 1008.29 1008.44 1008.59 1008.71 1008.77 1008.76 1008.66 1008.49 1008.27 1008.00 1007.72 1007.44 1007.18 1006.95 1006.76
1010.62 1010.44 1010.31 1010.29 1010.39 1010.58 1010.85 1011.14 1011.39 1011.56 1011.62 1011.55 1011.37 1011.09 1010.76 1010.40 1010.03 1009.67 1009.33 1008.99 1008.67 1008.36 1008.08 1007.85 1007.67 1007.57 1007.55 1007.62 1007.76 1007.94 1008.12 1008.29 1008.40 1008.44 1008.40 1008.28 1008.10 1007.88 1007.63 1007.37 1007.12 1006.89 1006.70
1010.64 1010.43 1010.27 1010.20 1010.25 1010.41 1010.65 1010.93 1011.19 1011.39 1011.49 1011.47 1011.34 1011.11 1010.81 1010.45 1010.07 1009.66 1009.25 1008.84 1008.42 1008.03 1007.67 1007.37 1007.15 1007.03 1007.01 1007.09 1007.26 1007.47 1007.70 1007.91 1008.07 1008.16 1008.18 1008.12 1007.99 1007.82 1007.62 1007.41 1007.20 1006.99 1006.80
Thickness
5822 5821 5818 5813 5809 5806 5802 5799 5797 5795 5793 5790 5788 5786 5785 5783 5781 5779 5777 5776 5774 5772 5771 5769 5767 5765 5764 5762 5760 5758 5757 5755 5754 5752 5751 5750 5749 5747 5746 5745 5744 5743 5742
5829 5823 5819 5814 5810 5806 5802 5799 5796 5794 5792 5790 5788 5786 5784 5783 5781 5779 5777 5775 5773 5771 5769 5767 5766 5764 5762 5760 5758 5756 5755 5754 5753 5752 5751 5750 5749 5748 5747 5745 5744 5744 5743
5830 5824 5820 5815 5810 5806 5802 5799 5796 5793 5791 5789 5787 5786 5784 5782 5780 5778 5776 5774 5772 5770 5769 5767 5765 5763 5761 5759 5757 5755 5753 5752 5752 5751 5750 5750 5749 5748 5747 5746 5745 5744 5743
5830 5824 5820 5815 5810 5806 5802 5798 5795 5793 5791 5788 5787 5785 5783 5782 5780 5778 5776 5774 5772 5770 5768 5766 5765 5763 5761 5759 5756 5754 5752 5751 5750 5750 5749 5748 5748 5748 5747 5746 5745 5744 5743
5828 5823 5819 5814 5809 5805 5801 5798 5795 5792 5790 5788 5786 5784 5782 5781 5779 5777 5775 5773 5771 5770 5768 5766 5764 5763 5761 5759 5757 5754 5752 5750 5749 5749 5748 5747 5747 5747 5747 5746 5745 5744 5743
5826 5822 5818 5813 5808 5804 5800 5797 5794 5792 5790 5788 5786 5783 5781 5780 5778 5776 5774 5772 5770 5769 5767 5766 5764 5762 5761 5759 5757 5755 5752 5750 5749 5748 5747 5746 5746 5746 5746 5746 5745 5745 5743
5825 5821 5817 5812 5807 5803 5800 5797 5794 5791 5789 5787 5784 5782 5780 5778 5776 5775 5773 5771 5770 5768 5767 5765 5763 5762 5760 5758 5757 5755 5753 5751 5749 5747 5746 5746 5746 5745 5745 5746 5745 5745 5744
5825 5820 5815 5811 5807 5802 5799 5796 5793 5791 5788 5786 5783 5781 5779 5777 5775 5774 5772 5770 5769 5767 5765 5764 5762 5760 5759 5757 5756 5754 5753 5751 5750 5748 5746 5746 5746 5745 5745 5746 5746 5745 5745
5823 5819 5814 5810 5806 5802 5798 5795 5792 5790 5787 5784 5782 5780 5778 5776 5774 5773 5771 5769 5768 5766 5765 5763 5761 5760 5758 5756 5755 5754 5753 5752 5751 5749 5748 5747 5746 5745 5746 5746 5747 5747 5746
5819 5816 5813 5810 5806 5802 5799 5795 5792 5789 5787 5784 5782 5779 5777 5775 5773 5772 5770 5768 5767 5766 5764 5762 5761 5759 5758 5756 5754 5753 5752 5752 5752 5751 5750 5749 5747 5746 5746 5746 5747 5747 5747
5814 5813 5811 5808 5805 5802 5798 5795 5792 5789 5787 5784 5782 5779 5777 5775 5772 5771 5769 5767 5766 5765 5764 5762 5760 5759 5757 5756 5754 5753 5752 5751 5751 5751 5751 5751 5750 5749 5748 5747 5748 5748 5748
5810 5809 5807 5804 5801 5798 5795 5793 5791 5789 5786 5784 5782 5779 5777 5774 5772 5769 5767 5766 5765 5764 5763 5762 5760 5758 5757 5755 5754 5752 5751 5750 5750 5750 5751 5752 5752 5751 5750 5750 5749 5749 5749
5809 5805 5802 5799 5796 5792 5790 5787 5786 5784 5783 5782 5780 5777 5775 5772 5770 5767 5765 5764 5763 5762 5761 5760 5759 5758 5756 5755 5753 5751 5750 5749 5749 5749 5751 5752 5752 5752 5752 5752 5752 5751 5751
5803 5800 5797 5794 5791 5787 5784 5782 5780 5778 5777 5776 5775 5773 5770 5768 5766 5765 5763 5762 5760 5758 5758 5757 5757 5756 5755 5754 5752 5751 5750 5749 5749 5749 5750 5751 5751 5752 5753 5753 5754 5754 5753
5800 5796 5793 5790 5786 5783 5779 5776 5774 5772 5771 5770 5768 5767 5765 5763 5762 5761 5760 5759 5757 5755 5754 5754 5753 5752 5752 5751 5750 5749 5749 5748 5748 5748 5748 5749 5750 5751 5752 5753 5754 5754 5754
5797 5793 5790 5785 5782 5778 5775 5773 5770 5767 5765 5763 5762 5760 5759 5758 5757 5756 5755 5755 5754 5752 5751 5750 5749 5747 5746 5746 5745 5745 5746 5746 5746 5746 5746 5747 5748 5750 5751 5752 5753 5754 5755
5794 5790 5785 5782 5777 5773 5770 5768 5766 5763 5760 5758 5756 5754 5753 5751 5750 5750 5750 5751 5752 5749 5746 5745 5744 5742 5740 5739 5739 5739 5741 5742 5742 5743 5743 5744 5745 5747 5748 5750 5751 5753 5754
5790 5785 5781 5779 5774 5770 5767 5763 5761 5759 5756 5754 5752 5750 5749 5748 5746 5745 5745 5747 5749 5746 5744 5741 5739 5736 5734 5733 5733 5733 5735 5736 5738 5740 5740 5742 5742 5744 5746 5748 5749 5751 5753
5785 5780 5775 5772 5770 5766 5763 5759 5757 5754 5752 5751 5749 5747 5746 5745 5743 5742 5742 5745 5745 5743 5742 5740 5737 5734 5731 5729 5728 5729 5730 5731 5734 5735 5736 5738 5740 5742 5743 5745 5747 5748 5750
5780 5775 5770 5767 5765 5762 5758 5755 5751 5748 5747 5746 5744 5743 5742 5741 5740 5739 5740 5741 5740 5739 5739 5738 5735 5733 5731 5729 5726 5725 5727 5728 5731 5731 5732 5734 5737 5739 5741 5743 5744 5746 5748
5772 5767 5763 5761 5758 5754 5749 5746 5742 5739 5739 5738 5738 5737 5735 5734 5734 5733 5733 5734 5734 5733 5735 5734 5732 5730 5728 5726 5719 5718 5722 5724 5726 5728 5729 5730 5733 5736 5738 5740 5741 5742 5744
5766 5762 5756 5754 5751 5748 5744 5740 5736 5733 5731 5730 5730 5729 5728 5727 5726 5726 5725 5726 5727 5727 5728 5728 5726 5724 5724 5722 5716 5711 5709 5713 5719 5724 5725 5727 5730 5731 5733 5736 5738 5739 5741
5760 5757 5753 5749 5745 5742 5738 5733 5729 5724 5721 5719 5718 5718 5719 5718 5718 5719 5719 5719 5719 5720 5720 5721 5721 5718 5717 5718 5715 5709 5704 5705 5711 5717 5720 5721 5723 5724 5726 5729 5732 5734 5735
5754 5751 5747 5743 5739 5736 5732 5726 5720 5715 5710 5710 5708 5707 5708 5708 5709 5710 5711 5712 5712 5713 5714 5715 5716 5714 5712 5711 5710 5709 5708 5708 5702 5705 5711 5714 5716 5717 5719 5722 5725 5727 5728
5748 5744 5740 5737 5733 5730 5726 5721 5716 5711 5707 5705 5702 5700 5699 5699 5699 5700 5701 5703 5704 5706 5707 5708 5709 5708 5708 5708 5706 5705 5703 5702 5702 5699 5701 5706 5708 5711 5713 5715 5717 5718 5720
5741 5738 5734 5731 5728 5725 5721 5717 5712 5707 5703 5699 5695 5692 5691 5690 5689 5690 5691 5693 5695 5697 5699 5701 5703 5703 5703 5703 5702 5701 5699 5698 5698 5697 5696 5698 5699 5702 5705 5706 5708 5709 5710